Time,TemperatureF,DewpointF,PressureIn,WindDirection,WindDirectionDegrees,WindSpeedMPH,WindSpeedGustMPH,Humidity,HourlyPrecipIn,Conditions,Clouds,dailyrainin,SoftwareType,DateUTC
2013-03-21 00:03:00,11.0,-1.0,-100.00,WNW,300,10.0,16.0,58,0.00,,,-99.99,,2013-03-21 05:03:00,
2013-03-21 00:12:00,11.0,-1.0,-100.00,WNW,300,10.0,16.0,58,0.00,,,-99.99,,2013-03-21 05:12:00,
2013-03-21 00:22:00,11.0,-1.0,-100.00,WNW,300,10.0,16.0,58,0.00,,,-99.99,,2013-03-21 05:22:00,
2013-03-21 00:52:00,10.0,-1.0,-100.00,WNW,290,8.0,13.0,60,0.00,,,-99.99,,2013-03-21 05:52:00,
2013-03-21 01:03:00,10.0,-1.0,-100.00,WNW,290,8.0,13.0,60,0.00,,,-99.99,,2013-03-21 06:03:00,
2013-03-21 01:12:00,10.0,-1.0,-100.00,WNW,290,8.0,13.0,60,0.00,,,-99.99,,2013-03-21 06:12:00,
2013-03-21 01:22:00,10.0,-1.0,-100.00,WNW,290,8.0,13.0,60,0.00,,,-99.99,,2013-03-21 06:22:00,
2013-03-21 01:52:00,9.0,-1.0,-100.00,WNW,290,9.0,14.0,63,0.00,,,-99.99,,2013-03-21 06:52:00,
2013-03-21 02:02:00,9.0,-1.0,-100.00,WNW,290,9.0,14.0,63,0.00,,,-99.99,,2013-03-21 07:02:00,
2013-03-21 02:12:00,9.0,-1.0,-100.00,WNW,290,9.0,14.0,63,0.00,,,-99.99,,2013-03-21 07:12:00,
2013-03-21 02:22:00,9.0,-1.0,-100.00,WNW,290,9.0,14.0,63,0.00,,,-99.99,,2013-03-21 07:22:00,
2013-03-21 02:52:00,8.0,-1.0,-100.00,WNW,290,7.0,13.0,64,0.00,,,-99.99,,2013-03-21 07:52:00,
2013-03-21 03:02:00,8.0,-1.0,-100.00,WNW,290,7.0,13.0,64,0.00,,,-99.99,,2013-03-21 08:02:00,
2013-03-21 03:13:00,8.0,-1.0,-100.00,WNW,290,7.0,13.0,64,0.00,,,-99.99,,2013-03-21 08:13:00,
2013-03-21 03:23:00,8.0,-1.0,-100.00,WNW,290,7.0,13.0,64,0.00,,,-99.99,,2013-03-21 08:23:00,
2013-03-21 03:52:00,9.0,0.0,-100.00,NW,305,10.0,15.0,66,0.00,,,-99.99,,2013-03-21 08:52:00,
2013-03-21 04:02:00,9.0,0.0,-100.00,NW,305,10.0,15.0,66,0.00,,,-99.99,,2013-03-21 09:02:00,
2013-03-21 04:11:00,9.0,0.0,-100.00,NW,305,10.0,15.0,66,0.00,,,-99.99,,2013-03-21 09:11:00,
2013-03-21 04:21:00,9.0,0.0,-100.00,NW,305,10.0,15.0,66,0.00,,,-99.99,,2013-03-21 09:21:00,
2013-03-21 04:53:00,9.0,0.0,-100.00,NW,305,11.0,15.0,67,0.00,,,-99.99,,2013-03-21 09:53:00,
2013-03-21 05:03:00,9.0,0.0,-100.00,NW,305,11.0,15.0,67,0.00,,,-99.99,,2013-03-21 10:03:00,
2013-03-21 05:12:00,9.0,0.0,-100.00,NW,305,11.0,15.0,67,0.00,,,-99.99,,2013-03-21 10:12:00,
2013-03-21 05:23:00,9.0,0.0,-100.00,NW,305,11.0,15.0,67,0.00,,,-99.99,,2013-03-21 10:23:00,
2013-03-21 05:53:00,8.0,0.0,-100.00,WNW,300,7.0,14.0,70,0.00,,,-99.99,,2013-03-21 10:53:00,
2013-03-21 06:03:00,8.0,0.0,-100.00,WNW,300,7.0,14.0,70,0.00,,,-99.99,,2013-03-21 11:03:00,
2013-03-21 06:12:00,8.0,0.0,-100.00,WNW,300,7.0,14.0,70,0.00,,,-99.99,,2013-03-21 11:12:00,
2013-03-21 06:22:00,8.0,0.0,-100.00,WNW,300,7.0,14.0,70,0.00,,,-99.99,,2013-03-21 11:22:00,
2013-03-21 06:53:00,8.0,1.0,-100.00,NNW,335,7.0,12.0,71,0.00,,,-99.99,,2013-03-21 11:53:00,
2013-03-21 07:03:00,8.0,1.0,-100.00,NNW,335,7.0,12.0,71,0.00,,,-99.99,,2013-03-21 12:03:00,
2013-03-21 07:12:00,8.0,1.0,-100.00,NNW,335,7.0,12.0,71,0.00,,,-99.99,,2013-03-21 12:12:00,
2013-03-21 07:22:00,8.0,1.0,-100.00,NNW,335,7.0,12.0,71,0.00,,,-99.99,,2013-03-21 12:22:00,
2013-03-21 07:53:00,9.0,1.0,-100.00,NW,320,7.0,14.0,72,0.00,,,-99.99,,2013-03-21 12:53:00,
2013-03-21 08:02:00,9.0,1.0,-100.00,NW,320,7.0,14.0,72,0.00,,,-99.99,,2013-03-21 13:02:00,
2013-03-21 08:12:00,9.0,1.0,-100.00,NW,320,7.0,14.0,72,0.00,,,-99.99,,2013-03-21 13:12:00,
2013-03-21 08:22:00,9.0,1.0,-100.00,NW,320,7.0,14.0,72,0.00,,,-99.99,,2013-03-21 13:22:00,
2013-03-21 08:52:00,11.0,3.0,-100.00,NW,305,9.0,17.0,69,0.00,,,-99.99,,2013-03-21 13:52:00,
2013-03-21 09:02:00,11.0,3.0,-100.00,NW,305,9.0,17.0,69,0.00,,,-99.99,,2013-03-21 14:02:00,
2013-03-21 09:12:00,11.0,3.0,-100.00,NW,305,9.0,17.0,69,0.00,,,-99.99,,2013-03-21 14:12:00,
2013-03-21 09:22:00,11.0,3.0,-100.00,NW,305,9.0,17.0,69,0.00,,,-99.99,,2013-03-21 14:22:00,
2013-03-21 09:30:00,15.0,4.0,-100.00,NW,305,12.0,21.0,60,0.00,,,-99.99,,2013-03-21 14:30:00,
2013-03-21 09:52:00,15.0,4.0,-100.00,NW,305,12.0,21.0,60,0.00,,,-99.99,,2013-03-21 14:52:00,
2013-03-21 10:03:00,15.0,4.0,-100.00,NW,305,12.0,21.0,60,0.00,,,-99.99,,2013-03-21 15:03:00,
2013-03-21 10:12:00,15.0,4.0,-100.00,NW,305,12.0,21.0,60,0.00,,,-99.99,,2013-03-21 15:12:00,
2013-03-21 10:22:00,15.0,4.0,-100.00,NW,305,12.0,21.0,60,0.00,,,-99.99,,2013-03-21 15:22:00,
2013-03-21 10:53:00,20.0,5.0,-100.00,NW,315,7.0,16.0,53,0.00,,,-99.99,,2013-03-21 15:53:00,
2013-03-21 11:03:00,20.0,5.0,-100.00,NW,315,7.0,16.0,53,0.00,,,-99.99,,2013-03-21 16:03:00,
2013-03-21 11:12:00,20.0,5.0,-100.00,NW,315,7.0,16.0,53,0.00,,,-99.99,,2013-03-21 16:12:00,
2013-03-21 11:23:00,20.0,5.0,-100.00,NW,315,7.0,16.0,53,0.00,,,-99.99,,2013-03-21 16:23:00,
2013-03-21 11:53:00,25.0,6.0,-100.00,NW,320,8.0,14.0,45,0.00,,,-99.99,,2013-03-21 16:53:00,
2013-03-21 12:02:00,25.0,6.0,-100.00,NW,320,8.0,14.0,45,0.00,,,-99.99,,2013-03-21 17:02:00,
2013-03-21 12:12:00,25.0,6.0,-100.00,NW,320,8.0,14.0,45,0.00,,,-99.99,,2013-03-21 17:12:00,
2013-03-21 12:23:00,25.0,6.0,-100.00,NW,320,8.0,14.0,45,0.00,,,-99.99,,2013-03-21 17:23:00,
2013-03-21 12:53:00,27.0,5.0,-100.00,NW,325,6.0,12.0,39,0.00,,,-99.99,,2013-03-21 17:53:00,
2013-03-21 13:02:00,27.0,5.0,-100.00,NW,325,6.0,12.0,39,0.00,,,-99.99,,2013-03-21 18:02:00,
2013-03-21 13:12:00,27.0,5.0,-100.00,NW,325,6.0,12.0,39,0.00,,,-99.99,,2013-03-21 18:12:00,
2013-03-21 13:23:00,27.0,5.0,-100.00,NW,325,6.0,12.0,39,0.00,,,-99.99,,2013-03-21 18:23:00,
2013-03-21 13:52:00,29.0,5.0,-100.00,NW,305,9.0,12.0,36,0.00,,,-99.99,,2013-03-21 18:52:00,
2013-03-21 14:02:00,29.0,5.0,-100.00,NW,305,9.0,12.0,36,0.00,,,-99.99,,2013-03-21 19:02:00,
2013-03-21 14:12:00,29.0,5.0,-100.00,NW,305,9.0,12.0,36,0.00,,,-99.99,,2013-03-21 19:12:00,
2013-03-21 14:22:00,29.0,5.0,-100.00,NW,305,9.0,12.0,36,0.00,,,-99.99,,2013-03-21 19:22:00,
2013-03-21 14:32:00,30.0,4.0,-100.00,WNW,290,6.0,16.0,32,0.00,,,-99.99,,2013-03-21 19:32:00,
2013-03-21 14:53:00,30.0,4.0,-100.00,WNW,290,6.0,16.0,32,0.00,,,-99.99,,2013-03-21 19:53:00,
2013-03-21 15:02:00,30.0,4.0,-100.00,WNW,290,6.0,16.0,32,0.00,,,-99.99,,2013-03-21 20:02:00,
2013-03-21 15:12:00,30.0,4.0,-100.00,WNW,290,6.0,16.0,32,0.00,,,-99.99,,2013-03-21 20:12:00,
2013-03-21 15:22:00,30.0,4.0,-100.00,WNW,290,6.0,16.0,32,0.00,,,-99.99,,2013-03-21 20:22:00,
2013-03-21 15:53:00,30.0,3.0,-100.00,WSW,255,12.0,16.0,32,0.00,,,-99.99,,2013-03-21 20:53:00,
2013-03-21 16:02:00,30.0,3.0,-100.00,WSW,255,12.0,16.0,32,0.00,,,-99.99,,2013-03-21 21:02:00,
2013-03-21 16:12:00,30.0,3.0,-100.00,WSW,255,12.0,16.0,32,0.00,,,-99.99,,2013-03-21 21:12:00,
2013-03-21 16:22:00,30.0,3.0,-100.00,WSW,255,12.0,16.0,32,0.00,,,-99.99,,2013-03-21 21:22:00,
2013-03-21 16:53:00,31.0,3.0,-100.00,West,275,10.0,16.0,31,0.00,,,-99.99,,2013-03-21 21:53:00,
2013-03-21 17:03:00,31.0,3.0,-100.00,West,275,10.0,16.0,31,0.00,,,-99.99,,2013-03-21 22:03:00,
2013-03-21 17:13:00,31.0,3.0,-100.00,West,275,10.0,16.0,31,0.00,,,-99.99,,2013-03-21 22:13:00,
2013-03-21 17:23:00,31.0,3.0,-100.00,West,275,10.0,16.0,31,0.00,,,-99.99,,2013-03-21 22:23:00,
2013-03-21 17:53:00,30.0,4.0,-100.00,West,280,9.0,12.0,32,0.00,,,-99.99,,2013-03-21 22:53:00,
2013-03-21 18:02:00,30.0,4.0,-100.00,West,280,9.0,12.0,32,0.00,,,-99.99,,2013-03-21 23:02:00,
2013-03-21 18:12:00,30.0,4.0,-100.00,West,280,9.0,12.0,32,0.00,,,-99.99,,2013-03-21 23:12:00,
2013-03-21 18:22:00,30.0,4.0,-100.00,West,280,9.0,12.0,32,0.00,,,-99.99,,2013-03-21 23:22:00,
2013-03-21 18:53:00,29.0,3.0,-100.00,NW,305,7.0,11.0,32,0.00,,,-99.99,,2013-03-21 23:53:00,
2013-03-21 19:03:00,29.0,3.0,-100.00,NW,305,7.0,11.0,32,0.00,,,-99.99,,2013-03-22 00:03:00,
2013-03-21 19:12:00,29.0,3.0,-100.00,NW,305,7.0,11.0,32,0.00,,,-99.99,,2013-03-22 00:12:00,
2013-03-21 19:22:00,29.0,3.0,-100.00,NW,305,7.0,11.0,32,0.00,,,-99.99,,2013-03-22 00:22:00,
2013-03-21 19:52:00,25.0,2.0,-100.00,WNW,290,4.0,6.0,37,0.00,,,-99.99,,2013-03-22 00:52:00,
2013-03-21 20:02:00,25.0,2.0,-100.00,WNW,290,4.0,6.0,37,0.00,,,-99.99,,2013-03-22 01:02:00,
2013-03-21 20:12:00,25.0,2.0,-100.00,WNW,290,4.0,6.0,37,0.00,,,-99.99,,2013-03-22 01:12:00,
2013-03-21 20:22:00,25.0,2.0,-100.00,WNW,290,4.0,6.0,37,0.00,,,-99.99,,2013-03-22 01:22:00,
2013-03-21 20:53:00,23.0,3.0,-100.00,NW,325,3.0,4.0,42,0.00,,,-99.99,,2013-03-22 01:53:00,
2013-03-21 21:02:00,23.0,3.0,-100.00,NW,325,3.0,4.0,42,0.00,,,-99.99,,2013-03-22 02:02:00,
2013-03-21 21:12:00,23.0,3.0,-100.00,NW,325,3.0,4.0,42,0.00,,,-99.99,,2013-03-22 02:12:00,
2013-03-21 21:22:00,23.0,3.0,-100.00,NW,325,3.0,4.0,42,0.00,,,-99.99,,2013-03-22 02:22:00,
2013-03-21 21:53:00,19.0,4.0,-100.00,West,275,4.0,5.0,52,0.00,,,-99.99,,2013-03-22 02:53:00,
2013-03-21 22:02:00,19.0,4.0,-100.00,West,275,4.0,5.0,52,0.00,,,-99.99,,2013-03-22 03:02:00,
2013-03-21 22:12:00,19.0,4.0,-100.00,West,275,4.0,5.0,52,0.00,,,-99.99,,2013-03-22 03:12:00,
2013-03-21 22:22:00,19.0,4.0,-100.00,West,275,4.0,5.0,52,0.00,,,-99.99,,2013-03-22 03:22:00,
2013-03-21 22:53:00,19.0,5.0,-100.00,WNW,300,2.0,5.0,55,0.00,,,-99.99,,2013-03-22 03:53:00,
2013-03-21 23:03:00,19.0,5.0,-100.00,WNW,300,2.0,5.0,55,0.00,,,-99.99,,2013-03-22 04:03:00,
2013-03-21 23:12:00,19.0,5.0,-100.00,WNW,300,2.0,5.0,55,0.00,,,-99.99,,2013-03-22 04:12:00,
2013-03-21 23:23:00,19.0,5.0,-100.00,WNW,300,2.0,5.0,55,0.00,,,-99.99,,2013-03-22 04:23:00,
2013-03-21 23:52:00,19.0,6.0,-100.00,WNW,300,5.0,10.0,56,0.00,,,-99.99,,2013-03-22 04:52:00,